Time,TemperatureF,DewpointF,PressureIn,WindDirection,WindDirectionDegrees,WindSpeedMPH,WindSpeedGustMPH,Humidity,HourlyPrecipIn,Conditions,Clouds,dailyrainin,SoftwareType,DateUTC
2013-02-05 00:00:00,28.9,28.2,29.92,SSE,161,0.0,0.0,97,0.00,,,0.20,Wunderground v.1.15,2013-02-05 05:00:00,
2013-02-05 00:01:00,28.9,28.2,29.92,SSE,161,0.0,0.0,97,0.00,,,0.20,Wunderground v.1.15,2013-02-05 05:01:00,
2013-02-05 00:02:00,28.9,28.2,29.91,SSE,161,0.0,0.0,97,0.00,,,0.00,Wunderground v.1.15,2013-02-05 05:02:00,
2013-02-05 00:06:00,29.0,28.3,29.91,SSE,161,0.0,0.0,97,0.00,,,0.00,Wunderground v.1.15,2013-02-05 05:06:00,
2013-02-05 00:11:00,29.2,28.5,29.91,SSE,161,0.0,0.0,97,0.00,,,0.00,Wunderground v.1.15,2013-02-05 05:11:00,
2013-02-05 00:16:00,29.2,28.5,29.91,SSE,161,0.0,0.0,97,0.00,,,0.00,Wunderground v.1.15,2013-02-05 05:16:00,
2013-02-05 00:21:00,29.2,28.5,29.91,SSE,161,0.0,0.0,97,0.00,,,0.00,Wunderground v.1.15,2013-02-05 05:21:00,
2013-02-05 00:26:00,29.3,28.6,29.91,SSE,161,0.0,0.0,97,0.00,,,0.00,Wunderground v.1.15,2013-02-05 05:26:00,
2013-02-05 00:31:00,29.6,28.9,29.91,SSE,161,0.0,0.0,97,0.00,,,0.00,Wunderground v.1.15,2013-02-05 05:31:00,
2013-02-05 00:36:00,29.7,29.0,29.91,SSE,161,0.0,1.0,97,0.00,,,0.00,Wunderground v.1.15,2013-02-05 05:36:00,
2013-02-05 00:41:00,29.8,29.1,29.91,SSE,161,0.0,1.0,97,0.00,,,0.00,Wunderground v.1.15,2013-02-05 05:41:00,
2013-02-05 00:46:00,30.1,29.4,29.91,SSE,161,0.0,1.0,97,0.00,,,0.00,Wunderground v.1.15,2013-02-05 05:46:00,
2013-02-05 00:52:00,30.3,29.6,29.91,SSE,161,0.0,1.0,97,0.00,,,0.00,Wunderground v.1.15,2013-02-05 05:52:00,
2013-02-05 00:58:00,30.4,29.9,29.90,SSE,161,0.0,1.0,98,0.00,,,0.00,Wunderground v.1.15,2013-02-05 05:58:00,
2013-02-05 01:05:00,30.6,30.1,29.91,SSE,161,0.0,0.0,98,0.00,,,0.00,Wunderground v.1.15,2013-02-05 06:05:00,
2013-02-05 01:10:00,30.8,30.0,29.90,SSE,161,0.0,1.0,97,0.00,,,0.00,Wunderground v.1.15,2013-02-05 06:10:00,
2013-02-05 01:16:00,30.8,30.0,29.91,SSE,161,0.0,0.0,97,0.00,,,0.00,Wunderground v.1.15,2013-02-05 06:16:00,
2013-02-05 01:21:00,31.0,30.5,29.90,SSE,161,0.0,0.0,98,0.00,,,0.00,Wunderground v.1.15,2013-02-05 06:21:00,
2013-02-05 01:26:00,31.1,30.6,29.90,SSE,161,0.0,1.0,98,0.00,,,0.00,Wunderground v.1.15,2013-02-05 06:26:00,
2013-02-05 01:31:00,31.1,30.6,29.90,SSE,161,0.0,1.0,98,0.00,,,0.00,Wunderground v.1.15,2013-02-05 06:31:00,
2013-02-05 01:36:00,31.1,30.6,29.90,SSE,161,0.0,1.0,98,0.00,,,0.00,Wunderground v.1.15,2013-02-05 06:36:00,
2013-02-05 01:41:00,31.2,30.7,29.90,SSE,161,0.0,1.0,98,0.00,,,0.00,Wunderground v.1.15,2013-02-05 06:41:00,
2013-02-05 01:46:00,31.2,30.7,29.89,SSE,161,0.0,1.0,98,0.00,,,0.00,Wunderground v.1.15,2013-02-05 06:46:00,
2013-02-05 01:51:00,31.2,30.7,29.90,SSE,161,0.0,1.0,98,0.00,,,0.00,Wunderground v.1.15,2013-02-05 06:51:00,
2013-02-05 01:56:00,31.3,30.8,29.90,SSE,161,0.0,1.0,98,0.00,,,0.00,Wunderground v.1.15,2013-02-05 06:56:00,
2013-02-05 02:01:00,31.3,30.8,29.90,SSE,161,0.0,0.0,98,0.00,,,0.00,Wunderground v.1.15,2013-02-05 07:01:00,
2013-02-05 02:06:00,31.5,31.0,29.90,NNW,333,1.0,3.0,98,0.00,,,0.00,Wunderground v.1.15,2013-02-05 07:06:00,
2013-02-05 02:11:00,31.5,31.0,29.90,NNW,333,1.0,1.0,98,0.00,,,0.00,Wunderground v.1.15,2013-02-05 07:11:00,
2013-02-05 02:17:00,31.6,31.1,29.90,NNW,333,1.0,2.0,98,0.00,,,0.00,Wunderground v.1.15,2013-02-05 07:17:00,
2013-02-05 02:22:00,31.7,31.2,29.91,NNW,333,1.0,1.0,98,0.00,,,0.00,Wunderground v.1.15,2013-02-05 07:22:00,
2013-02-05 02:28:00,31.7,31.2,29.91,NNW,333,2.0,4.0,98,0.00,,,0.00,Wunderground v.1.15,2013-02-05 07:28:00,
2013-02-05 02:33:00,31.8,31.3,29.91,NNW,333,2.0,2.0,98,0.00,,,0.00,Wunderground v.1.15,2013-02-05 07:33:00,
2013-02-05 02:38:00,31.8,31.3,29.91,NNW,333,2.0,2.0,98,0.00,,,0.00,Wunderground v.1.15,2013-02-05 07:38:00,
2013-02-05 02:45:00,31.8,31.3,29.91,NW,322,2.0,3.0,98,0.00,,,0.00,Wunderground v.1.15,2013-02-05 07:45:00,
2013-02-05 02:50:00,31.8,31.3,29.91,NW,323,2.0,3.0,98,0.00,,,0.00,Wunderground v.1.15,2013-02-05 07:50:00,
2013-02-05 02:55:00,31.9,31.4,29.91,NNW,331,2.0,3.0,98,0.00,,,0.00,Wunderground v.1.15,2013-02-05 07:55:00,
2013-02-05 03:00:00,31.9,31.4,29.91,NNW,330,2.0,3.0,98,0.00,,,0.00,Wunderground v.1.15,2013-02-05 08:00:00,
2013-02-05 03:05:00,31.9,31.4,29.91,NNW,330,2.0,2.0,98,0.00,,,0.00,Wunderground v.1.15,2013-02-05 08:05:00,
2013-02-05 03:10:00,31.9,31.4,29.90,NW,321,1.0,1.0,98,0.00,,,0.00,Wunderground v.1.15,2013-02-05 08:10:00,
2013-02-05 03:16:00,31.8,31.3,29.90,NW,321,1.0,2.0,98,0.00,,,0.00,Wunderground v.1.15,2013-02-05 08:16:00,
2013-02-05 03:21:00,31.8,31.3,29.90,NW,321,1.0,1.0,98,0.00,,,0.00,Wunderground v.1.15,2013-02-05 08:21:00,
2013-02-05 03:26:00,31.8,31.3,29.90,NW,321,1.0,2.0,98,0.00,,,0.00,Wunderground v.1.15,2013-02-05 08:26:00,
2013-02-05 03:31:00,31.8,31.3,29.90,NW,321,1.0,3.0,98,0.00,,,0.00,Wunderground v.1.15,2013-02-05 08:31:00,
2013-02-05 03:36:00,31.7,31.2,29.90,NW,321,1.0,4.0,98,0.00,,,0.00,Wunderground v.1.15,2013-02-05 08:36:00,
2013-02-05 03:41:00,31.7,31.2,29.90,NNW,329,2.0,4.0,98,0.00,,,0.00,Wunderground v.1.15,2013-02-05 08:41:00,
2013-02-05 03:46:00,31.6,31.1,29.90,NNW,336,2.0,4.0,98,0.00,,,0.00,Wunderground v.1.15,2013-02-05 08:46:00,
2013-02-05 03:51:00,31.5,31.0,29.90,NNW,336,2.0,4.0,98,0.00,,,0.00,Wunderground v.1.15,2013-02-05 08:51:00,
2013-02-05 03:56:00,31.5,31.0,29.90,NNW,336,1.0,4.0,98,0.00,,,0.00,Wunderground v.1.15,2013-02-05 08:56:00,
2013-02-05 04:02:00,31.5,31.0,29.90,NNW,336,0.0,1.0,98,0.00,,,0.00,Wunderground v.1.15,2013-02-05 09:02:00,
2013-02-05 04:08:00,31.4,30.9,29.90,NNW,336,0.0,2.0,98,0.00,,,0.00,Wunderground v.1.15,2013-02-05 09:08:00,
2013-02-05 04:13:00,31.4,30.9,29.90,NNW,336,1.0,1.0,98,0.00,,,0.00,Wunderground v.1.15,2013-02-05 09:13:00,
2013-02-05 04:19:00,31.4,30.9,29.90,NNW,336,1.0,1.0,98,0.00,,,0.00,Wunderground v.1.15,2013-02-05 09:19:00,
2013-02-05 04:25:00,31.3,30.8,29.90,NNW,336,1.0,1.0,98,0.00,,,0.00,Wunderground v.1.15,2013-02-05 09:25:00,
2013-02-05 04:31:00,31.3,30.8,29.90,NNW,336,0.0,1.0,98,0.00,,,0.00,Wunderground v.1.15,2013-02-05 09:31:00,
2013-02-05 04:36:00,31.3,30.8,29.91,NNW,336,1.0,4.0,98,0.00,,,0.00,Wunderground v.1.15,2013-02-05 09:36:00,
2013-02-05 04:41:00,31.2,30.7,29.91,NNW,336,1.0,4.0,98,0.00,,,0.00,Wunderground v.1.15,2013-02-05 09:41:00,
2013-02-05 04:46:00,31.2,30.7,29.91,NNW,336,1.0,4.0,98,0.00,,,0.00,Wunderground v.1.15,2013-02-05 09:46:00,
2013-02-05 04:51:00,31.2,30.7,29.91,NNW,336,1.0,4.0,98,0.00,,,0.00,Wunderground v.1.15,2013-02-05 09:51:00,
2013-02-05 04:56:00,31.2,30.7,29.90,NNW,336,1.0,4.0,98,0.00,,,0.00,Wunderground v.1.15,2013-02-05 09:56:00,
2013-02-05 05:01:00,31.1,30.6,29.91,NNW,336,1.0,1.0,98,0.00,,,0.00,Wunderground v.1.15,2013-02-05 10:01:00,
2013-02-05 05:06:00,31.1,30.6,29.91,NNW,336,0.0,1.0,98,0.00,,,0.00,Wunderground v.1.15,2013-02-05 10:06:00,
2013-02-05 05:11:00,31.0,30.5,29.91,NNW,336,0.0,0.0,98,0.00,,,0.00,Wunderground v.1.15,2013-02-05 10:11:00,
2013-02-05 05:16:00,31.0,30.5,29.91,NNW,336,0.0,1.0,98,0.00,,,0.00,Wunderground v.1.15,2013-02-05 10:16:00,
2013-02-05 05:21:00,31.0,30.2,29.91,NNW,336,0.0,0.0,97,0.00,,,0.00,Wunderground v.1.15,2013-02-05 10:21:00,
2013-02-05 05:26:00,31.0,30.2,29.91,NNW,336,0.0,0.0,97,0.00,,,0.00,Wunderground v.1.15,2013-02-05 10:26:00,
2013-02-05 05:31:00,30.9,30.1,29.91,NNW,336,0.0,3.0,97,0.00,,,0.00,Wunderground v.1.15,2013-02-05 10:31:00,
2013-02-05 05:36:00,30.9,30.1,29.91,NNW,336,0.0,3.0,97,0.00,,,0.00,Wunderground v.1.15,2013-02-05 10:36:00,
2013-02-05 05:41:00,30.8,30.0,29.92,NNW,336,0.0,3.0,97,0.00,,,0.00,Wunderground v.1.15,2013-02-05 10:41:00,
2013-02-05 05:47:00,30.8,30.0,29.92,NNW,336,0.0,3.0,97,0.00,,,0.00,Wunderground v.1.15,2013-02-05 10:47:00,
2013-02-05 05:52:00,30.8,30.0,29.93,NNW,336,0.0,3.0,97,0.00,,,0.00,Wunderground v.1.15,2013-02-05 10:52:00,
2013-02-05 05:57:00,30.7,30.0,29.93,NNW,336,0.0,3.0,97,0.00,,,0.00,Wunderground v.1.15,2013-02-05 10:57:00,
2013-02-05 06:02:00,30.7,30.0,29.93,NNW,336,0.0,0.0,97,0.00,,,0.00,Wunderground v.1.15,2013-02-05 11:02:00,
2013-02-05 06:07:00,30.7,30.0,29.93,NNW,336,0.0,0.0,97,0.00,,,0.00,Wunderground v.1.15,2013-02-05 11:07:00,
2013-02-05 06:13:00,30.7,30.0,29.92,NNW,336,0.0,0.0,97,0.00,,,0.00,Wunderground v.1.15,2013-02-05 11:13:00,
2013-02-05 06:18:00,30.7,30.0,29.92,NNW,336,0.0,0.0,97,0.00,,,0.00,Wunderground v.1.15,2013-02-05 11:18:00,
2013-02-05 06:23:00,30.7,30.0,29.92,NNW,336,0.0,0.0,97,0.00,,,0.00,Wunderground v.1.15,2013-02-05 11:23:00,
2013-02-05 06:28:00,30.6,29.9,29.91,NNW,336,0.0,0.0,97,0.00,,,0.00,Wunderground v.1.15,2013-02-05 11:28:00,
2013-02-05 06:33:00,30.7,30.0,29.91,NNW,336,0.0,2.0,97,0.00,,,0.00,Wunderground v.1.15,2013-02-05 11:33:00,
2013-02-05 06:38:00,30.6,29.9,29.91,NNW,336,0.0,2.0,97,0.00,,,0.00,Wunderground v.1.15,2013-02-05 11:38:00,
2013-02-05 06:43:00,30.6,29.9,29.92,NNW,336,0.0,2.0,97,0.00,,,0.00,Wunderground v.1.15,2013-02-05 11:43:00,
2013-02-05 06:50:00,30.5,29.8,29.92,NNW,336,0.0,2.0,97,0.00,,,0.00,Wunderground v.1.15,2013-02-05 11:50:00,
2013-02-05 06:55:00,30.4,29.7,29.92,NNW,336,0.0,2.0,97,0.00,,,0.00,Wunderground v.1.15,2013-02-05 11:55:00,
2013-02-05 07:00:00,30.3,29.6,29.92,NNW,336,0.0,2.0,97,0.00,,,0.00,Wunderground v.1.15,2013-02-05 12:00:00,
2013-02-05 07:05:00,30.3,29.6,29.92,NNW,336,0.0,0.0,97,0.00,,,0.00,Wunderground v.1.15,2013-02-05 12:05:00,
2013-02-05 07:10:00,30.2,29.5,29.92,NNW,336,0.0,0.0,97,0.00,,,0.00,Wunderground v.1.15,2013-02-05 12:10:00,
2013-02-05 07:15:00,30.1,29.4,29.92,NNW,336,0.0,0.0,97,0.00,,,0.00,Wunderground v.1.15,2013-02-05 12:15:00,
2013-02-05 07:20:00,30.1,29.4,29.92,NNW,336,0.0,0.0,97,0.00,,,0.00,Wunderground v.1.15,2013-02-05 12:20:00,
2013-02-05 07:25:00,30.0,29.3,29.92,NNW,336,0.0,0.0,97,0.00,,,0.00,Wunderground v.1.15,2013-02-05 12:25:00,
2013-02-05 07:31:00,29.9,29.2,29.92,NNW,336,0.0,0.0,97,0.00,,,0.00,Wunderground v.1.15,2013-02-05 12:31:00,
2013-02-05 07:36:00,29.9,29.2,29.92,NNW,336,0.0,2.0,97,0.00,,,0.00,Wunderground v.1.15,2013-02-05 12:36:00,
2013-02-05 07:41:00,29.8,29.1,29.92,NNW,336,0.0,2.0,97,0.00,,,0.00,Wunderground v.1.15,2013-02-05 12:41:00,
2013-02-05 07:46:00,29.8,29.1,29.92,NNW,336,0.0,2.0,97,0.00,,,0.00,Wunderground v.1.15,2013-02-05 12:46:00,
2013-02-05 07:51:00,29.8,29.1,29.91,NNW,336,0.0,2.0,97,0.00,,,0.00,Wunderground v.1.15,2013-02-05 12:51:00,
2013-02-05 07:56:00,29.8,29.1,29.92,NNW,336,0.0,2.0,97,0.00,,,0.00,Wunderground v.1.15,2013-02-05 12:56:00,
2013-02-05 08:02:00,29.8,29.1,29.91,NNW,336,0.0,0.0,97,0.00,,,0.00,Wunderground v.1.15,2013-02-05 13:02:00,
2013-02-05 08:08:00,29.8,29.1,29.91,NNW,336,0.0,0.0,97,0.00,,,0.00,Wunderground v.1.15,2013-02-05 13:08:00,
2013-02-05 08:13:00,29.9,29.2,29.90,NNW,336,0.0,0.0,97,0.00,,,0.00,Wunderground v.1.15,2013-02-05 13:13:00,
2013-02-05 08:18:00,30.0,29.3,29.91,NNW,336,0.0,0.0,97,0.00,,,0.00,Wunderground v.1.15,2013-02-05 13:18:00,
2013-02-05 08:23:00,30.1,29.4,29.91,NNW,336,0.0,0.0,97,0.00,,,0.00,Wunderground v.1.15,2013-02-05 13:23:00,
2013-02-05 08:30:00,30.1,29.4,29.91,NNW,336,0.0,0.0,97,0.00,,,0.00,Wunderground v.1.15,2013-02-05 13:30:00,
2013-02-05 08:35:00,30.1,29.4,29.91,NNW,336,0.0,0.0,97,0.00,,,0.00,Wunderground v.1.15,2013-02-05 13:35:00,
2013-02-05 08:40:00,30.3,29.6,29.91,NNW,336,0.0,0.0,97,0.00,,,0.00,Wunderground v.1.15,2013-02-05 13:40:00,
2013-02-05 08:45:00,30.4,29.7,29.91,NNW,336,0.0,0.0,97,0.00,,,0.00,Wunderground v.1.15,2013-02-05 13:45:00,
2013-02-05 08:51:00,30.5,29.8,29.92,NNW,336,0.0,0.0,97,0.00,,,0.00,Wunderground v.1.15,2013-02-05 13:51:00,
2013-02-05 08:56:00,30.5,29.8,29.92,NNW,336,0.0,0.0,97,0.00,,,0.00,Wunderground v.1.15,2013-02-05 13:56:00,
2013-02-05 09:01:00,30.6,29.9,29.92,NNW,336,0.0,0.0,97,0.00,,,0.00,Wunderground v.1.15,2013-02-05 14:01:00,
2013-02-05 09:06:00,30.7,30.0,29.92,NNW,336,0.0,0.0,97,0.00,,,0.00,Wunderground v.1.15,2013-02-05 14:06:00,
2013-02-05 09:11:00,30.8,30.0,29.92,NNW,336,0.0,0.0,97,0.00,,,0.00,Wunderground v.1.15,2013-02-05 14:11:00,
2013-02-05 09:16:00,30.9,30.4,29.92,NNW,336,0.0,0.0,98,0.00,,,0.00,Wunderground v.1.15,2013-02-05 14:16:00,
2013-02-05 09:21:00,30.9,30.4,29.93,NNW,336,0.0,0.0,98,0.00,,,0.00,Wunderground v.1.15,2013-02-05 14:21:00,
2013-02-05 09:26:00,30.9,30.4,29.92,NNW,336,0.0,0.0,98,0.00,,,0.00,Wunderground v.1.15,2013-02-05 14:26:00,
2013-02-05 09:31:00,31.0,30.5,29.92,NNW,336,0.0,0.0,98,0.00,,,0.00,Wunderground v.1.15,2013-02-05 14:31:00,
2013-02-05 09:37:00,31.1,30.6,29.92,NNW,336,0.0,1.0,98,0.00,,,0.00,Wunderground v.1.15,2013-02-05 14:37:00,
2013-02-05 09:43:00,31.1,30.6,29.92,NNW,336,0.0,0.0,98,0.00,,,0.00,Wunderground v.1.15,2013-02-05 14:43:00,
2013-02-05 09:50:00,31.2,30.4,29.92,NNW,336,0.0,0.0,97,0.00,,,0.00,Wunderground v.1.15,2013-02-05 14:50:00,
2013-02-05 09:55:00,31.2,30.4,29.92,NNW,336,0.0,0.0,97,0.00,,,0.00,Wunderground v.1.15,2013-02-05 14:55:00,
2013-02-05 10:01:00,31.2,30.4,29.93,NNW,336,0.0,1.0,97,0.00,,,0.00,Wunderground v.1.15,2013-02-05 15:01:00,
2013-02-05 10:06:00,31.2,30.4,29.93,NNW,336,0.0,2.0,97,0.00,,,0.00,Wunderground v.1.15,2013-02-05 15:06:00,
2013-02-05 10:12:00,31.1,30.3,29.93,NNW,336,1.0,2.0,97,0.00,,,0.00,Wunderground v.1.15,2013-02-05 15:12:00,
2013-02-05 10:17:00,31.1,30.3,29.93,NNW,336,1.0,2.0,97,0.00,,,0.00,Wunderground v.1.15,2013-02-05 15:17:00,
2013-02-05 10:22:00,31.1,30.3,29.93,NNW,336,0.0,0.0,97,0.00,,,0.00,Wunderground v.1.15,2013-02-05 15:22:00,
2013-02-05 10:27:00,31.2,30.4,29.93,NNW,336,0.0,0.0,97,0.00,,,0.00,Wunderground v.1.15,2013-02-05 15:27:00,
2013-02-05 10:32:00,31.3,30.5,29.93,NNW,336,0.0,0.0,97,0.00,,,0.00,Wunderground v.1.15,2013-02-05 15:32:00,
2013-02-05 10:37:00,31.4,30.6,29.93,NNW,336,0.0,0.0,97,0.00,,,0.00,Wunderground v.1.15,2013-02-05 15:37:00,
2013-02-05 10:42:00,31.6,30.8,29.92,NNW,336,0.0,0.0,97,0.00,,,0.00,Wunderground v.1.15,2013-02-05 15:42:00,
2013-02-05 10:48:00,31.7,30.9,29.92,NNW,336,0.0,0.0,97,0.00,,,0.00,Wunderground v.1.15,2013-02-05 15:48:00,
2013-02-05 10:53:00,31.9,31.1,29.92,NNW,336,0.0,0.0,97,0.00,,,0.00,Wunderground v.1.15,2013-02-05 15:53:00,
2013-02-05 10:58:00,32.0,31.8,29.92,NNW,336,0.0,1.0,99,0.00,,,0.00,Wunderground v.1.15,2013-02-05 15:58:00,
2013-02-05 11:03:00,32.2,31.7,29.92,NNW,336,0.0,0.0,98,0.00,,,0.00,Wunderground v.1.15,2013-02-05 16:03:00,
2013-02-05 11:08:00,32.3,31.8,29.92,NNW,336,0.0,0.0,98,0.00,,,0.00,Wunderground v.1.15,2013-02-05 16:08:00,
2013-02-05 11:13:00,32.4,31.6,29.92,NNW,336,0.0,0.0,97,0.00,,,0.00,Wunderground v.1.15,2013-02-05 16:13:00,
2013-02-05 11:18:00,32.6,31.8,29.92,NNW,336,0.0,0.0,97,0.00,,,0.00,Wunderground v.1.15,2013-02-05 16:18:00,
2013-02-05 11:24:00,32.6,32.1,29.92,NNW,336,0.0,0.0,98,0.00,,,0.00,Wunderground v.1.15,2013-02-05 16:24:00,
2013-02-05 11:30:00,32.6,32.1,29.92,NNW,336,0.0,1.0,98,0.00,,,0.00,Wunderground v.1.15,2013-02-05 16:30:00,
2013-02-05 11:34:00,32.5,31.7,29.92,NNW,336,0.0,3.0,97,0.00,,,0.00,Wunderground v.1.15,2013-02-05 16:34:00,
2013-02-05 11:39:00,32.5,31.7,29.92,NNW,336,0.0,3.0,97,0.00,,,0.00,Wunderground v.1.15,2013-02-05 16:39:00,
2013-02-05 11:45:00,32.5,31.7,29.91,NNW,336,0.0,3.0,97,0.00,,,0.00,Wunderground v.1.15,2013-02-05 16:45:00,
2013-02-05 11:50:00,32.5,31.7,29.91,NNW,336,0.0,3.0,97,0.00,,,0.00,Wunderground v.1.15,2013-02-05 16:50:00,
2013-02-05 11:55:00,32.5,31.7,29.91,NNW,336,0.0,3.0,97,0.00,,,0.00,Wunderground v.1.15,2013-02-05 16:55:00,
2013-02-05 12:01:00,32.5,31.7,29.91,NNW,336,0.0,0.0,97,0.00,,,0.00,Wunderground v.1.15,2013-02-05 17:01:00,
2013-02-05 12:06:00,32.5,31.7,29.90,NNW,336,0.0,0.0,97,0.00,,,0.00,Wunderground v.1.15,2013-02-05 17:06:00,
2013-02-05 12:11:00,32.6,31.8,29.90,NNW,336,0.0,0.0,97,0.00,,,0.00,Wunderground v.1.15,2013-02-05 17:11:00,
2013-02-05 12:16:00,32.7,31.9,29.90,NNW,336,0.0,1.0,97,0.00,,,0.00,Wunderground v.1.15,2013-02-05 17:16:00,
2013-02-05 12:21:00,32.7,31.9,29.90,NNW,336,0.0,0.0,97,0.00,,,0.00,Wunderground v.1.15,2013-02-05 17:21:00,
2013-02-05 12:26:00,32.8,32.0,29.90,NNW,336,0.0,1.0,97,0.00,,,0.00,Wunderground v.1.15,2013-02-05 17:26:00,
2013-02-05 12:31:00,32.8,32.0,29.89,NNW,336,0.0,2.0,97,0.00,,,0.00,Wunderground v.1.15,2013-02-05 17:31:00,
2013-02-05 12:36:00,32.8,32.0,29.89,NNW,336,1.0,2.0,97,0.00,,,0.00,Wunderground v.1.15,2013-02-05 17:36:00,
2013-02-05 12:41:00,32.8,32.0,29.89,NNW,336,1.0,2.0,97,0.00,,,0.00,Wunderground v.1.15,2013-02-05 17:41:00,
2013-02-05 12:46:00,32.8,32.0,29.89,NNW,336,0.0,2.0,97,0.00,,,0.00,Wunderground v.1.15,2013-02-05 17:46:00,
2013-02-05 12:52:00,32.8,32.0,29.89,NNW,336,1.0,2.0,97,0.00,,,0.00,Wunderground v.1.15,2013-02-05 17:52:00,
2013-02-05 12:57:00,32.8,32.0,29.89,NNW,336,0.0,2.0,97,0.00,,,0.00,Wunderground v.1.15,2013-02-05 17:57:00,
2013-02-05 13:03:00,32.9,32.1,29.88,NNW,336,0.0,0.0,97,0.00,,,0.00,Wunderground v.1.15,2013-02-05 18:03:00,
2013-02-05 13:08:00,32.9,32.1,29.88,NNW,336,0.0,2.0,97,0.00,,,0.00,Wunderground v.1.15,2013-02-05 18:08:00,
2013-02-05 13:15:00,32.9,32.1,29.88,NNW,336,0.0,2.0,97,0.00,,,0.00,Wunderground v.1.15,2013-02-05 18:15:00,
2013-02-05 13:21:00,33.0,32.2,29.88,NNW,336,0.0,0.0,97,0.00,,,0.00,Wunderground v.1.15,2013-02-05 18:21:00,
2013-02-05 13:26:00,33.1,32.3,29.88,NNW,336,0.0,0.0,97,0.00,,,0.00,Wunderground v.1.15,2013-02-05 18:26:00,
2013-02-05 13:31:00,33.2,32.4,29.87,NNW,336,0.0,2.0,97,0.00,,,0.00,Wunderground v.1.15,2013-02-05 18:31:00,
2013-02-05 13:36:00,33.2,32.4,29.87,NNW,336,0.0,2.0,97,0.00,,,0.00,Wunderground v.1.15,2013-02-05 18:36:00,
2013-02-05 13:41:00,33.3,32.5,29.87,NNW,336,0.0,2.0,97,0.00,,,0.00,Wunderground v.1.15,2013-02-05 18:41:00,
2013-02-05 13:46:00,33.4,32.6,29.87,NNW,336,0.0,2.0,97,0.00,,,0.00,Wunderground v.1.15,2013-02-05 18:46:00,
2013-02-05 13:51:00,33.4,32.6,29.87,NNW,336,0.0,2.0,97,0.00,,,0.00,Wunderground v.1.15,2013-02-05 18:51:00,
2013-02-05 13:56:00,33.6,32.8,29.87,NNW,336,0.0,2.0,97,0.00,,,0.00,Wunderground v.1.15,2013-02-05 18:56:00,
2013-02-05 14:02:00,33.7,32.9,29.87,NNW,336,0.0,2.0,97,0.00,,,0.00,Wunderground v.1.15,2013-02-05 19:02:00,
2013-02-05 14:07:00,33.8,33.0,29.86,NNW,336,0.0,2.0,97,0.00,,,0.00,Wunderground v.1.15,2013-02-05 19:07:00,
2013-02-05 14:12:00,33.8,33.0,29.87,NNW,336,0.0,0.0,97,0.00,,,0.00,Wunderground v.1.15,2013-02-05 19:12:00,
2013-02-05 14:17:00,33.8,33.0,29.87,NNW,336,0.0,0.0,97,0.00,,,0.00,Wunderground v.1.15,2013-02-05 19:17:00,
2013-02-05 14:23:00,33.8,33.0,29.87,NNW,336,1.0,2.0,97,0.00,,,0.00,Wunderground v.1.15,2013-02-05 19:23:00,
2013-02-05 14:28:00,33.7,32.9,29.87,NNW,336,1.0,2.0,97,0.00,,,0.00,Wunderground v.1.15,2013-02-05 19:28:00,
2013-02-05 14:33:00,33.6,32.8,29.87,WNW,290,1.0,2.0,97,0.00,,,0.00,Wunderground v.1.15,2013-02-05 19:33:00,
2013-02-05 14:38:00,33.6,32.8,29.88,NNW,347,1.0,2.0,97,0.00,,,0.00,Wunderground v.1.15,2013-02-05 19:38:00,
2013-02-05 14:43:00,33.6,32.8,29.87,SE,128,1.0,2.0,97,0.00,,,0.00,Wunderground v.1.15,2013-02-05 19:43:00,
2013-02-05 14:48:00,33.6,32.8,29.87,WNW,294,1.0,4.0,97,0.00,,,0.00,Wunderground v.1.15,2013-02-05 19:48:00,
2013-02-05 14:54:00,33.6,32.8,29.87,SE,144,2.0,4.0,97,0.00,,,0.00,Wunderground v.1.15,2013-02-05 19:54:00,
2013-02-05 14:59:00,33.6,32.6,29.88,North,360,2.0,4.0,96,0.00,,,0.00,Wunderground v.1.15,2013-02-05 19:59:00,
2013-02-05 15:05:00,33.7,32.7,29.88,South,185,2.0,3.0,96,0.00,,,0.00,Wunderground v.1.15,2013-02-05 20:05:00,
2013-02-05 15:11:00,33.8,32.8,29.88,ENE,72,1.0,1.0,96,0.00,,,0.00,Wunderground v.1.15,2013-02-05 20:11:00,
2013-02-05 15:16:00,34.0,33.0,29.88,North,350,1.0,2.0,96,0.00,,,0.00,Wunderground v.1.15,2013-02-05 20:16:00,
2013-02-05 15:21:00,34.1,32.8,29.88,West,273,1.0,1.0,95,0.00,,,0.00,Wunderground v.1.15,2013-02-05 20:21:00,
2013-02-05 15:26:00,34.3,33.0,29.88,NNE,30,1.0,5.0,95,0.00,,,0.00,Wunderground v.1.15,2013-02-05 20:26:00,
2013-02-05 15:31:00,34.4,32.9,29.88,ENE,59,1.0,1.0,94,0.00,,,0.00,Wunderground v.1.15,2013-02-05 20:31:00,
2013-02-05 15:36:00,34.4,32.6,29.88,North,10,2.0,4.0,93,0.00,,,0.00,Wunderground v.1.15,2013-02-05 20:36:00,
2013-02-05 15:41:00,34.4,32.3,29.88,SSE,165,2.0,5.0,92,0.00,,,0.00,Wunderground v.1.15,2013-02-05 20:41:00,
2013-02-05 15:46:00,34.6,32.2,29.88,SSW,194,3.0,5.0,91,0.00,,,0.00,Wunderground v.1.15,2013-02-05 20:46:00,
2013-02-05 15:51:00,34.7,32.1,29.88,NW,307,2.0,2.0,90,0.00,,,0.00,Wunderground v.1.15,2013-02-05 20:51:00,
2013-02-05 15:56:00,34.7,31.8,29.89,ENE,57,2.0,4.0,89,0.00,,,0.00,Wunderground v.1.15,2013-02-05 20:56:00,
2013-02-05 16:02:00,34.7,31.5,29.89,South,184,2.0,5.0,88,0.00,,,0.00,Wunderground v.1.15,2013-02-05 21:02:00,
2013-02-05 16:07:00,34.9,31.4,29.89,North,360,2.0,5.0,87,0.00,,,0.00,Wunderground v.1.15,2013-02-05 21:07:00,
2013-02-05 16:12:00,35.0,31.2,29.89,WNW,298,2.0,2.0,86,0.00,,,0.00,Wunderground v.1.15,2013-02-05 21:12:00,
2013-02-05 16:17:00,35.1,31.0,29.90,North,11,2.0,6.0,85,0.00,,,0.00,Wunderground v.1.15,2013-02-05 21:17:00,
2013-02-05 16:22:00,35.0,30.7,29.90,North,10,3.0,3.0,84,0.00,,,0.00,Wunderground v.1.15,2013-02-05 21:22:00,
2013-02-05 16:27:00,34.8,30.2,29.90,SE,133,3.0,5.0,83,0.00,,,0.00,Wunderground v.1.15,2013-02-05 21:27:00,
2013-02-05 16:32:00,34.8,30.2,29.90,WSW,237,2.0,6.0,83,0.00,,,0.00,Wunderground v.1.15,2013-02-05 21:32:00,
2013-02-05 16:37:00,34.8,30.5,29.90,SSE,159,1.0,6.0,84,0.00,,,0.00,Wunderground v.1.15,2013-02-05 21:37:00,
2013-02-05 16:42:00,34.7,30.1,29.90,ENE,57,2.0,6.0,83,0.00,,,0.00,Wunderground v.1.15,2013-02-05 21:42:00,
2013-02-05 16:47:00,34.6,29.7,29.91,SE,140,3.0,6.0,82,0.00,,,0.00,Wunderground v.1.15,2013-02-05 21:47:00,
2013-02-05 16:52:00,34.4,29.5,29.91,South,186,4.0,6.0,82,0.00,,,0.00,Wunderground v.1.15,2013-02-05 21:52:00,
2013-02-05 16:58:00,34.4,29.5,29.91,NW,311,3.0,7.0,82,0.00,,,0.00,Wunderground v.1.15,2013-02-05 21:58:00,
2013-02-05 17:03:00,34.3,29.7,29.91,NW,304,2.0,4.0,83,0.00,,,0.00,Wunderground v.1.15,2013-02-05 22:03:00,
2013-02-05 17:08:00,34.1,29.5,29.91,South,174,2.0,5.0,83,0.00,,,0.00,Wunderground v.1.15,2013-02-05 22:08:00,
2013-02-05 17:13:00,34.0,29.4,29.91,East,88,2.0,2.0,83,0.00,,,0.00,Wunderground v.1.15,2013-02-05 22:13:00,
2013-02-05 17:19:00,33.9,29.6,29.91,East,88,1.0,2.0,84,0.00,,,0.00,Wunderground v.1.15,2013-02-05 22:19:00,
2013-02-05 17:25:00,33.8,29.5,29.91,WSW,256,1.0,5.0,84,0.00,,,0.00,Wunderground v.1.15,2013-02-05 22:25:00,
2013-02-05 17:31:00,33.7,29.7,29.91,West,259,1.0,1.0,85,0.00,,,0.00,Wunderground v.1.15,2013-02-05 22:31:00,
2013-02-05 17:36:00,33.6,29.6,29.91,South,182,1.0,9.0,85,0.00,,,0.00,Wunderground v.1.15,2013-02-05 22:36:00,
2013-02-05 17:41:00,33.5,29.5,29.91,South,178,1.0,1.0,85,0.00,,,0.00,Wunderground v.1.15,2013-02-05 22:41:00,
2013-02-05 17:46:00,33.5,29.5,29.91,SE,133,1.0,9.0,85,0.00,,,0.00,Wunderground v.1.15,2013-02-05 22:46:00,
2013-02-05 17:51:00,33.4,29.4,29.91,SSE,152,2.0,9.0,85,0.00,,,0.00,Wunderground v.1.15,2013-02-05 22:51:00,
2013-02-05 17:56:00,33.3,29.3,29.91,South,182,3.0,9.0,85,0.00,,,0.00,Wunderground v.1.15,2013-02-05 22:56:00,
2013-02-05 18:01:00,33.3,29.3,29.91,South,182,2.0,2.0,85,0.00,,,0.00,Wunderground v.1.15,2013-02-05 23:01:00,
2013-02-05 18:06:00,33.2,29.2,29.92,SE,144,2.0,4.0,85,0.00,,,0.00,Wunderground v.1.15,2013-02-05 23:06:00,
2013-02-05 18:11:00,33.2,28.9,29.92,SSE,167,2.0,2.0,84,0.00,,,0.00,Wunderground v.1.15,2013-02-05 23:11:00,
2013-02-05 18:17:00,33.2,29.2,29.92,SE,138,1.0,2.0,85,0.00,,,0.00,Wunderground v.1.15,2013-02-05 23:17:00,
2013-02-05 18:22:00,33.0,29.0,29.92,WNW,283,1.0,3.0,85,0.00,,,0.00,Wunderground v.1.15,2013-02-05 23:22:00,
2013-02-05 18:27:00,32.8,28.8,29.93,SSW,207,2.0,6.0,85,0.00,,,0.00,Wunderground v.1.15,2013-02-05 23:27:00,
2013-02-05 18:32:00,32.6,28.9,29.93,SSW,198,3.0,9.0,86,0.00,,,0.00,Wunderground v.1.15,2013-02-05 23:32:00,
2013-02-05 18:37:00,32.4,28.7,29.93,South,176,3.0,9.0,86,0.00,,,0.00,Wunderground v.1.15,2013-02-05 23:37:00,
2013-02-05 18:42:00,32.3,28.9,29.93,South,186,2.0,9.0,87,0.00,,,0.00,Wunderground v.1.15,2013-02-05 23:42:00,
2013-02-05 18:47:00,32.1,28.9,29.93,SSE,164,2.0,9.0,88,0.00,,,0.00,Wunderground v.1.15,2013-02-05 23:47:00,
2013-02-05 18:53:00,31.9,28.8,29.94,SSE,150,2.0,9.0,88,0.00,,,0.00,Wunderground v.1.15,2013-02-05 23:53:00,
2013-02-05 18:58:00,31.7,28.8,29.94,SE,139,1.0,9.0,89,0.00,,,0.00,Wunderground v.1.15,2013-02-05 23:58:00,
2013-02-05 19:05:00,31.5,28.9,29.94,SE,138,1.0,9.0,90,0.00,,,0.00,Wunderground v.1.15,2013-02-06 00:05:00,
2013-02-05 19:10:00,31.4,29.1,29.94,SE,138,0.0,0.0,91,0.00,,,0.00,Wunderground v.1.15,2013-02-06 00:10:00,
2013-02-05 19:16:00,31.3,29.0,29.94,SE,138,0.0,0.0,91,0.00,,,0.00,Wunderground v.1.15,2013-02-06 00:16:00,
2013-02-05 19:21:00,31.2,28.9,29.94,NNW,328,0.0,0.0,91,0.00,,,0.00,Wunderground v.1.15,2013-02-06 00:21:00,
2013-02-05 19:26:00,31.0,28.9,29.95,NNW,328,0.0,0.0,92,0.00,,,0.01,Wunderground v.1.15,2013-02-06 00:26:00,
2013-02-05 19:31:00,31.0,28.9,29.95,NNW,327,0.0,0.0,92,0.00,,,0.01,Wunderground v.1.15,2013-02-06 00:31:00,
2013-02-05 19:36:00,30.9,28.9,29.95,NNW,328,0.0,8.0,92,0.00,,,0.01,Wunderground v.1.15,2013-02-06 00:36:00,
2013-02-05 19:41:00,30.8,29.0,29.95,NNW,327,0.0,8.0,93,0.00,,,0.01,Wunderground v.1.15,2013-02-06 00:41:00,
2013-02-05 19:46:00,30.8,29.0,29.95,NNW,327,0.0,8.0,93,0.00,,,0.01,Wunderground v.1.15,2013-02-06 00:46:00,
2013-02-05 19:51:00,30.7,28.9,29.95,NNW,327,0.0,8.0,93,0.00,,,0.02,Wunderground v.1.15,2013-02-06 00:51:00,
2013-02-05 19:56:00,30.7,28.9,29.95,NNW,328,0.0,8.0,93,0.00,,,0.02,Wunderground v.1.15,2013-02-06 00:56:00,
2013-02-05 20:02:00,30.7,29.2,29.96,NNW,328,0.0,0.0,94,0.04,,,0.03,Wunderground v.1.15,2013-02-06 01:02:00,
2013-02-05 20:08:00,30.6,29.1,29.96,NNW,327,0.0,2.0,94,0.04,,,0.03,Wunderground v.1.15,2013-02-06 01:08:00,
2013-02-05 20:13:00,30.5,29.0,29.96,NNW,328,1.0,1.0,94,0.04,,,0.03,Wunderground v.1.15,2013-02-06 01:13:00,
2013-02-05 20:20:00,30.3,28.8,29.96,NNW,327,0.0,1.0,94,0.00,,,0.03,Wunderground v.1.15,2013-02-06 01:20:00,
2013-02-05 20:25:00,30.2,28.7,29.96,NNW,327,0.0,2.0,94,0.00,,,0.04,Wunderground v.1.15,2013-02-06 01:25:00,
2013-02-05 20:30:00,30.0,28.7,29.96,NNW,328,1.0,1.0,95,0.00,,,0.04,Wunderground v.1.15,2013-02-06 01:30:00,
2013-02-05 20:35:00,29.9,28.6,29.96,NNW,327,1.0,2.0,95,0.00,,,0.04,Wunderground v.1.15,2013-02-06 01:35:00,
2013-02-05 20:40:00,29.8,28.5,29.96,NNW,328,1.0,1.0,95,0.00,,,0.05,Wunderground v.1.15,2013-02-06 01:40:00,
2013-02-05 20:46:00,29.7,28.4,29.97,NNW,328,0.0,2.0,95,0.00,,,0.05,Wunderground v.1.15,2013-02-06 01:46:00,
2013-02-05 20:51:00,29.7,28.4,29.97,NNW,328,0.0,2.0,95,0.00,,,0.05,Wunderground v.1.15,2013-02-06 01:51:00,
2013-02-05 20:56:00,29.7,28.4,29.97,NNW,328,0.0,2.0,95,0.00,,,0.05,Wunderground v.1.15,2013-02-06 01:56:00,
2013-02-05 21:01:00,29.6,28.3,29.97,NNW,328,0.0,0.0,95,0.00,,,0.06,Wunderground v.1.15,2013-02-06 02:01:00,
2013-02-05 21:06:00,29.6,28.3,29.97,NNW,327,0.0,0.0,95,0.00,,,0.06,Wunderground v.1.15,2013-02-06 02:06:00,
2013-02-05 21:12:00,29.7,28.4,29.97,NNW,328,0.0,0.0,95,0.00,,,0.06,Wunderground v.1.15,2013-02-06 02:12:00,
2013-02-05 21:17:00,29.7,28.4,29.97,NNW,327,0.0,0.0,95,0.00,,,0.06,Wunderground v.1.15,2013-02-06 02:17:00,
2013-02-05 21:22:00,29.7,28.7,29.97,NNW,328,0.0,0.0,96,0.00,,,0.06,Wunderground v.1.15,2013-02-06 02:22:00,
2013-02-05 21:28:00,29.6,28.3,29.97,NNW,328,0.0,0.0,95,0.00,,,0.06,Wunderground v.1.15,2013-02-06 02:28:00,
2013-02-05 21:33:00,29.6,28.6,29.97,NNW,328,0.0,3.0,96,0.00,,,0.06,Wunderground v.1.15,2013-02-06 02:33:00,
2013-02-05 21:40:00,29.5,28.5,29.97,NNW,327,0.0,3.0,96,0.00,,,0.06,Wunderground v.1.15,2013-02-06 02:40:00,
2013-02-05 21:45:00,29.5,28.5,29.97,NNW,328,0.0,3.0,96,0.00,,,0.06,Wunderground v.1.15,2013-02-06 02:45:00,
2013-02-05 21:50:00,29.4,28.4,29.97,NNW,328,0.0,3.0,96,0.00,,,0.06,Wunderground v.1.15,2013-02-06 02:50:00,
2013-02-05 21:56:00,29.4,28.4,29.97,NNW,329,0.0,3.0,96,0.00,,,0.06,Wunderground v.1.15,2013-02-06 02:56:00,
2013-02-05 22:01:00,29.3,28.3,29.97,NNW,329,0.0,0.0,96,0.00,,,0.06,Wunderground v.1.15,2013-02-06 03:01:00,
2013-02-05 22:06:00,29.3,28.3,29.97,NNW,329,0.0,0.0,96,0.00,,,0.06,Wunderground v.1.15,2013-02-06 03:06:00,
2013-02-05 22:12:00,29.2,28.2,29.97,NNW,329,0.0,0.0,96,0.00,,,0.06,Wunderground v.1.15,2013-02-06 03:12:00,
2013-02-05 22:18:00,29.1,28.1,29.97,NNW,329,0.0,0.0,96,0.00,,,0.06,Wunderground v.1.15,2013-02-06 03:18:00,
2013-02-05 22:23:00,29.1,28.1,29.97,NNW,329,0.0,0.0,96,0.00,,,0.06,Wunderground v.1.15,2013-02-06 03:23:00,
2013-02-05 22:28:00,29.1,28.1,29.97,NNW,329,0.0,0.0,96,0.00,,,0.06,Wunderground v.1.15,2013-02-06 03:28:00,
2013-02-05 22:33:00,29.0,28.0,29.98,NNW,329,0.0,0.0,96,0.00,,,0.06,Wunderground v.1.15,2013-02-06 03:33:00,
2013-02-05 22:38:00,28.9,27.9,29.98,NNW,329,0.0,0.0,96,0.00,,,0.06,Wunderground v.1.15,2013-02-06 03:38:00,
2013-02-05 22:43:00,28.9,27.9,29.98,NNW,329,0.0,0.0,96,0.00,,,0.06,Wunderground v.1.15,2013-02-06 03:43:00,
2013-02-05 22:48:00,28.9,27.9,29.99,NNW,329,0.0,0.0,96,0.00,,,0.06,Wunderground v.1.15,2013-02-06 03:48:00,
2013-02-05 22:53:00,28.9,27.9,29.99,NNW,329,0.0,0.0,96,0.00,,,0.06,Wunderground v.1.15,2013-02-06 03:53:00,
2013-02-05 22:58:00,28.9,27.9,29.99,NNW,329,0.0,0.0,96,0.00,,,0.06,Wunderground v.1.15,2013-02-06 03:58:00,
2013-02-05 23:04:00,29.0,28.0,29.99,NNW,329,0.0,0.0,96,0.00,,,0.07,Wunderground v.1.15,2013-02-06 04:04:00,
2013-02-05 23:10:00,29.0,28.0,29.99,NNW,329,0.0,0.0,96,0.00,,,0.07,Wunderground v.1.15,2013-02-06 04:10:00,
2013-02-05 23:15:00,28.9,27.9,29.99,NNW,329,0.0,0.0,96,0.00,,,0.07,Wunderground v.1.15,2013-02-06 04:15:00,
2013-02-05 23:21:00,29.0,28.0,29.99,NNW,329,0.0,0.0,96,0.00,,,0.07,Wunderground v.1.15,2013-02-06 04:21:00,
2013-02-05 23:26:00,29.0,28.0,29.98,NNW,329,0.0,0.0,96,0.00,,,0.07,Wunderground v.1.15,2013-02-06 04:26:00,
2013-02-05 23:31:00,29.1,28.1,29.98,NNW,329,0.0,0.0,96,0.00,,,0.07,Wunderground v.1.15,2013-02-06 04:31:00,
2013-02-05 23:37:00,29.1,28.1,29.98,NNW,329,0.0,0.0,96,0.00,,,0.07,Wunderground v.1.15,2013-02-06 04:37:00,
2013-02-05 23:42:00,29.1,28.1,29.99,NNW,329,0.0,0.0,96,0.00,,,0.07,Wunderground v.1.15,2013-02-06 04:42:00,
2013-02-05 23:47:00,29.2,28.2,29.99,NNW,329,0.0,0.0,96,0.00,,,0.07,Wunderground v.1.15,2013-02-06 04:47:00,
2013-02-05 23:52:00,29.1,28.1,29.99,NNW,329,0.0,0.0,96,0.00,,,0.07,Wunderground v.1.15,2013-02-06 04:52:00,
2013-02-05 23:57:00,29.1,28.1,29.98,NNW,329,0.0,0.0,96,0.00,,,0.07,Wunderground v.1.15,2013-02-06 04:57:00,